| time (UTC) | temp C | wind direction | speed KPH | gust KPH | rain 1hr cm | rain 24hr cm | rain mn cm | humidity % | barometer mb |
| 20260508065111 | 8 | 317 | 3.2 | 6.4 | 0.05 | 1.96 | 1.19 | 99 | 1013.1 |
| 20260508064611 | 8 | 307 | 3.2 | 9.7 | 0.05 | 1.96 | 1.19 | 99 | 1013.2 |
| 20260508064112 | 8 | 307 | 1.6 | 6.4 | 0.05 | 1.96 | 1.19 | 99 | 1012.9 |
| 20260508063610 | 8 | 303 | 3.2 | 9.7 | 0.08 | 1.96 | 1.19 | 99 | 1013.0 |
| 20260508062611 | 9 | 297 | 3.2 | 6.4 | 0.05 | 1.93 | 1.17 | 99 | 1013.0 |
| 20260508062111 | 8 | 320 | 3.2 | 6.4 | 0.05 | 1.93 | 1.17 | 99 | 1012.9 |
| 20260508061612 | 9 | 334 | 4.8 | 6.4 | 0.05 | 1.93 | 1.17 | 99 | 1013.1 |
| 20260508061110 | 9 | 321 | 4.8 | 6.4 | 0.05 | 1.93 | 1.17 | 99 | 1012.8 |
| 20260508060111 | 8 | 322 | 4.8 | 9.7 | 0.05 | 1.93 | 1.17 | 99 | 1012.6 |
| 20260508055111 | 8 | 341 | 4.8 | 9.7 | 0.03 | 1.91 | 1.14 | 99 | 1012.9 |
| 20260508054610 | 8 | 358 | 6.4 | 9.7 | 0.03 | 1.91 | 1.14 | 99 | 1012.7 |
| 20260508054111 | 8 | 359 | 4.8 | 9.7 | 0.03 | 1.91 | 1.14 | 99 | 1012.6 |
| 20260508053611 | 8 | 325 | 6.4 | 9.7 | 0.00 | 1.88 | 1.12 | 99 | 1012.8 |
| 20260508053110 | 8 | 325 | 3.2 | 6.4 | 0.00 | 1.88 | 1.12 | 99 | 1012.7 |
| 20260508052611 | 8 | 249 | 4.8 | 6.4 | 0.00 | 1.88 | 1.12 | 99 | 1012.4 |
| 20260508052110 | 8 | 300 | 1.6 | 6.4 | 0.00 | 1.88 | 1.12 | 99 | 1013.0 |
| 20260508051612 | 8 | 261 | 0.0 | 6.4 | 0.00 | 1.88 | 1.12 | 99 | 1013.1 |
| 20260508051111 | 8 | 307 | 3.2 | 6.4 | 0.00 | 1.88 | 1.12 | 99 | 1013.1 |
| 20260508050612 | 8 | 276 | 3.2 | 9.7 | 0.00 | 1.88 | 1.12 | 99 | 1013.0 |
| 20260508050110 | 8 | 267 | 3.2 | 12.9 | 0.00 | 1.88 | 1.12 | 99 | 1012.9 |
| 20260508045610 | 8 | 315 | 4.8 | 12.9 | 0.00 | 1.88 | 1.12 | 99 | 1012.7 |
| 20260508044610 | 9 | 302 | 3.2 | 9.7 | 0.00 | 1.88 | 1.12 | 99 | 1012.5 |
| 20260508044109 | 9 | 348 | 6.4 | 9.7 | 0.00 | 1.88 | 1.12 | 99 | 1012.5 |
| 20260508043610 | 9 | 319 | 3.2 | 9.7 | 0.03 | 1.88 | 1.12 | 99 | 1012.3 |
| 20260508043108 | 9 | 318 | 4.8 | 9.7 | 0.03 | 1.88 | 1.12 | 99 | 1012.5 |
| 20260508042610 | 8 | 331 | 3.2 | 11.3 | 0.03 | 1.88 | 1.12 | 99 | 1012.4 |
| 20260508041610 | 9 | 330 | 6.4 | 9.7 | 0.03 | 1.88 | 1.12 | 99 | 1012.1 |
| 20260508040611 | 9 | 344 | 4.8 | 9.7 | 0.03 | 1.88 | 1.12 | 99 | 1012.0 |
| 20260508040109 | 9 | 334 | 6.4 | 9.7 | 0.03 | 1.88 | 1.12 | 99 | 1012.1 |
| 20260508035610 | 9 | 346 | 4.8 | 9.7 | 0.03 | 1.88 | 1.12 | 99 | 1012.0 |
| 20260508035110 | 9 | 316 | 3.2 | 9.7 | 0.03 | 1.88 | 1.12 | 99 | 1012.3 |
| 20260508034111 | 9 | 332 | 4.8 | 9.7 | 0.03 | 1.88 | 1.12 | 99 | 1012.0 |
| 20260508033610 | 9 | 324 | 3.2 | 9.7 | 0.03 | 1.85 | 1.09 | 99 | 1012.3 |
| 20260508033111 | 9 | 289 | 3.2 | 9.7 | 0.03 | 1.85 | 1.09 | 99 | 1012.2 |
| 20260508031611 | 9 | 269 | 0.0 | 6.4 | 0.03 | 1.85 | 1.09 | 99 | 1011.5 |
| 20260508031110 | 9 | 289 | 1.6 | 9.7 | 0.03 | 1.85 | 1.09 | 99 | 1011.9 |
| 20260508030610 | 9 | 254 | 1.6 | 9.7 | 0.03 | 1.85 | 1.09 | 99 | 1011.5 |
| 20260508030110 | 9 | 320 | 3.2 | 6.4 | 0.03 | 1.85 | 1.09 | 99 | 1011.7 |
| 20260508025610 | 9 | 298 | 1.6 | 4.8 | 0.03 | 1.85 | 1.09 | 99 | 1011.7 |
| 20260508025110 | 9 | 337 | 3.2 | 4.8 | 0.05 | 1.85 | 1.09 | 99 | 1011.5 |
| 20260508024608 | 9 | 318 | 3.2 | 4.8 | 0.05 | 1.85 | 1.09 | 99 | 1011.5 |
| 20260508024109 | 9 | 330 | 3.2 | 6.4 | 0.08 | 1.85 | 1.09 | 99 | 1011.5 |
| 20260508023609 | 9 | 33 | 3.2 | 6.4 | 0.08 | 1.83 | 1.07 | 99 | 1011.4 |
| 20260508023108 | 9 | 341 | 3.2 | 9.7 | 0.15 | 1.83 | 1.07 | 99 | 1011.4 |
| 20260508022108 | 9 | 354 | 4.8 | 6.4 | 0.43 | 1.83 | 1.07 | 99 | 1011.2 |
| 20260508021609 | 10 | 340 | 3.2 | 6.4 | 0.48 | 1.83 | 1.07 | 99 | 1011.2 |
| 20260508020609 | 10 | 346 | 3.2 | 6.4 | 0.48 | 1.83 | 1.07 | 99 | 1011.3 |
| 20260508015608 | 10 | 350 | 6.4 | 9.7 | 0.48 | 1.83 | 1.07 | 99 | 1011.4 |
| 20260508015107 | 10 | 324 | 3.2 | 4.8 | 0.48 | 1.80 | 1.04 | 99 | 1011.3 |
| 20260508014607 | 10 | 340 | 3.2 | 4.8 | 0.48 | 1.80 | 1.04 | 99 | 1011.3 |
| 20260508014108 | 10 | 314 | 3.2 | 4.8 | 0.46 | 1.78 | 1.02 | 99 | 1011.3 |
| 20260508013606 | 10 | 296 | 3.2 | 4.8 | 0.43 | 1.75 | 0.99 | 99 | 1011.4 |
| 20260508013106 | 10 | 290 | 3.2 | 6.4 | 0.36 | 1.65 | 0.91 | 99 | 1011.9 |
| 20260508012606 | 10 | 345 | 3.2 | 9.7 | 0.33 | 1.63 | 0.86 | 99 | 1011.5 |
| 20260508011606 | 10 | 314 | 3.2 | 4.8 | 0.05 | 1.35 | 0.58 | 99 | 1011.5 |
| 20260508011105 | 10 | 294 | 3.2 | 4.8 | 0.05 | 1.35 | 0.58 | 99 | 1011.7 |
| 20260508010615 | 10 | 346 | 3.2 | 9.7 | 0.05 | 1.35 | 0.58 | 99 | 1011.7 |
| 20260508005607 | 10 | 302 | 6.4 | 9.7 | 0.05 | 1.35 | 0.58 | 99 | 1011.7 |
| 20260508004606 | 10 | 245 | 1.6 | 9.7 | 0.03 | 1.32 | 0.56 | 99 | 1011.3 |
| 20260508004107 | 10 | 273 | 3.2 | 9.7 | 0.03 | 1.32 | 0.56 | 99 | 1011.2 |
| 20260508003115 | 10 | 341 | 6.4 | 12.9 | 0.03 | 1.30 | 0.53 | 99 | 1011.0 |
| 20260508002605 | 10 | 339 | 3.2 | 11.3 | 0.08 | 1.30 | 0.53 | 99 | 1011.1 |
| 20260508002106 | 10 | 312 | 1.6 | 12.9 | 0.20 | 1.30 | 0.53 | 99 | 1011.3 |
| 20260508001605 | 10 | 336 | 8.0 | 12.9 | 0.43 | 1.30 | 0.53 | 99 | 1011.1 |
| 20260508001106 | 10 | 347 | 8.0 | 11.3 | 0.53 | 1.30 | 0.53 | 99 | 1011.0 |
| 20260508000605 | 10 | 29 | 6.4 | 11.3 | 0.53 | 1.30 | 0.53 | 99 | 1011.3 |
| 20260508000108 | 10 | 348 | 4.8 | 9.7 | 0.53 | 1.30 | 0.53 | 99 | 1011.2 |
| 20260507235605 | 10 | 0 | 3.2 | 6.4 | 0.53 | 1.30 | 0.53 | 99 | 1011.3 |
| 20260507235107 | 10 | 285 | 3.2 | 12.9 | 0.53 | 1.30 | 0.53 | 99 | 1011.2 |
| 20260507234605 | 10 | 276 | 1.6 | 12.9 | 0.53 | 1.30 | 0.53 | 99 | 1011.4 |
| 20260507234107 | 10 | 255 | 1.6 | 6.4 | 0.53 | 1.30 | 0.53 | 99 | 1011.2 |
| 20260507233605 | 10 | 265 | 1.6 | 6.4 | 0.53 | 1.30 | 0.53 | 99 | 1011.0 |
| 20260507233106 | 11 | 287 | 4.8 | 6.4 | 0.51 | 1.27 | 0.51 | 99 | 1011.2 |
| 20260507232605 | 10 | 294 | 3.2 | 6.4 | 0.43 | 1.19 | 0.46 | 99 | 1011.1 |
| 20260507232107 | 10 | 346 | 4.8 | 4.8 | 0.33 | 1.09 | 0.33 | 99 | 1011.3 |
| 20260507231605 | 11 | 304 | 3.2 | 11.3 | 0.05 | 0.81 | 0.08 | 99 | 1011.3 |
| 20260507231107 | 11 | 288 | 3.2 | 11.3 | 0.00 | 0.76 | 0.00 | 99 | 1011.2 |
| 20260507230606 | 11 | 282 | 1.6 | 9.7 | 0.00 | 0.76 | 0.00 | 99 | 1011.3 |
| 20260507230106 | 11 | 305 | 3.2 | 4.8 | 0.00 | 0.76 | 0.00 | 99 | 1011.3 |
| 20260507225605 | 11 | 327 | 1.6 | 9.7 | 0.00 | 0.76 | 0.00 | 99 | 1011.2 |
| 20260507225107 | 11 | 313 | 4.8 | 11.3 | 0.00 | 0.76 | 0.00 | 99 | 1011.0 |
| 20260507224605 | 11 | 348 | 8.0 | 11.3 | 0.00 | 0.76 | 0.00 | 99 | 1011.3 |
| 20260507224106 | 11 | 325 | 6.4 | 9.7 | 0.00 | 0.76 | 0.00 | 99 | 1011.4 |
| 20260507223605 | 11 | 343 | 4.8 | 9.7 | 0.00 | 0.76 | 0.00 | 99 | 1011.3 |
| 20260507223107 | 11 | 272 | 4.8 | 11.3 | 0.00 | 0.76 | 0.00 | 99 | 1011.0 |
| 20260507222107 | 11 | 336 | 9.7 | 11.3 | 0.00 | 0.76 | 0.00 | 99 | 1011.2 |
| 20260507221605 | 11 | 345 | 8.0 | 11.3 | 0.00 | 0.76 | 0.00 | 99 | 1011.2 |
| 20260507221106 | 11 | 281 | 4.8 | 9.7 | 0.00 | 0.76 | 0.00 | 99 | 1011.1 |
| 20260507220605 | 11 | 355 | 3.2 | 9.7 | 0.00 | 0.76 | 0.00 | 99 | 1011.2 |
| 20260507220106 | 11 | 26 | 6.4 | 9.7 | 0.00 | 0.76 | 0.00 | 99 | 1011.0 |
| 20260507215605 | 11 | 327 | 4.8 | 9.7 | 0.00 | 0.76 | 0.76 | 99 | 1010.9 |
| 20260507215106 | 11 | 0 | 3.2 | 9.7 | 0.00 | 0.76 | 0.76 | 99 | 1011.0 |
| 20260507214605 | 11 | 350 | 6.4 | 9.7 | 0.00 | 0.76 | 0.76 | 99 | 1010.8 |
| 20260507214107 | 11 | 314 | 4.8 | 11.3 | 0.00 | 0.76 | 0.76 | 99 | 1011.2 |
| 20260507213107 | 11 | 322 | 4.8 | 11.3 | 0.00 | 0.76 | 0.76 | 99 | 1010.6 |
| 20260507212605 | 11 | 326 | 6.4 | 11.3 | 0.00 | 0.76 | 0.76 | 99 | 1010.6 |
| 20260507212107 | 12 | 339 | 4.8 | 11.3 | 0.00 | 0.76 | 0.76 | 99 | 1010.7 |
| 20260507211606 | 12 | 340 | 6.4 | 11.3 | 0.00 | 0.76 | 0.76 | 99 | 1010.7 |
| 20260507211107 | 12 | 323 | 6.4 | 11.3 | 0.00 | 0.76 | 0.76 | 99 | 1010.8 |
| 20260507210603 | 12 | 139 | 3.2 | 9.7 | 0.00 | 0.76 | 0.76 | 99 | 1010.9 |
| 20260507210104 | 12 | 331 | 4.8 | 6.4 | 0.00 | 0.76 | 0.76 | 99 | 1011.0 |
| 20260507205602 | 12 | 358 | 3.2 | 6.4 | 0.00 | 0.76 | 0.76 | 99 | 1010.8 |
| 20260507205104 | 12 | 271 | 3.2 | 6.4 | 0.00 | 0.76 | 0.76 | 99 | 1010.9 |
| 20260507204603 | 12 | 259 | 0.0 | 6.4 | 0.03 | 0.76 | 0.76 | 99 | 1010.6 |
| 20260507204102 | 12 | 277 | 0.0 | 4.8 | 0.05 | 0.76 | 0.76 | 98 | 1010.5 |
| 20260507203100 | 12 | 277 | 1.6 | 3.2 | 0.10 | 0.76 | 0.76 | 98 | 1010.5 |
| 20260507202559 | 12 | 259 | 0.0 | 3.2 | 0.10 | 0.76 | 0.76 | 98 | 1010.4 |
| 20260507201548 | 12 | 298 | 1.6 | 4.8 | 0.10 | 0.76 | 0.76 | 98 | 1010.2 |
| 20260507200548 | 12 | 299 | 1.6 | 6.4 | 0.10 | 0.76 | 0.76 | 98 | 1010.2 |
| 20260507195535 | 12 | 313 | 6.4 | 11.3 | 0.10 | 0.76 | 0.76 | 98 | 1010.0 |
| 20260507195036 | 12 | 359 | 9.7 | 11.3 | 0.10 | 0.76 | 0.76 | 98 | 1010.1 |
| 20260507194535 | 12 | 336 | 4.8 | 6.4 | 0.08 | 0.74 | 0.74 | 97 | 1009.7 |
| 20260507194034 | 13 | 258 | 0.0 | 6.4 | 0.03 | 0.69 | 0.71 | 97 | 1010.0 |
| 20260507193533 | 12 | 276 | 1.6 | 6.4 | 0.00 | 0.66 | 0.66 | 97 | 1010.3 |
| 20260507193034 | 12 | 251 | 1.6 | 3.2 | 0.00 | 0.66 | 0.66 | 97 | 1010.8 |
| 20260507192524 | 12 | 246 | 0.0 | 4.8 | 0.00 | 0.66 | 0.66 | 97 | 1010.5 |
| 20260507191524 | 12 | 294 | 1.6 | 4.8 | 0.00 | 0.66 | 0.66 | 97 | 1010.0 |
| 20260507191021 | 12 | 274 | 0.0 | 6.4 | 0.00 | 0.66 | 0.66 | 96 | 1010.0 |
| 20260507190523 | 12 | 5 | 3.2 | 6.4 | 0.00 | 0.66 | 0.66 | 96 | 1009.5 |
| 20260507190021 | 12 | 254 | 0.0 | 9.7 | 0.00 | 0.66 | 0.66 | 96 | 1009.6 |
| 20260507185020 | 13 | 198 | 3.2 | 14.5 | 0.00 | 0.66 | 0.66 | 96 | 1009.3 |
| 20260507184524 | 13 | 125 | 6.4 | 14.5 | 0.00 | 0.66 | 0.66 | 96 | 1009.0 |
| 20260507184021 | 13 | 175 | 6.4 | 14.5 | 0.03 | 0.66 | 0.66 | 96 | 1009.1 |
| 20260507183526 | 13 | 150 | 4.8 | 11.3 | 0.03 | 0.66 | 0.66 | 96 | 1009.1 |
| 20260507183021 | 13 | 233 | 1.6 | 11.3 | 0.05 | 0.66 | 0.66 | 96 | 1009.0 |
| 20260507182021 | 13 | 200 | 1.6 | 4.8 | 0.46 | 0.66 | 0.66 | 95 | 1009.2 |
| 20260507181540 | 12 | 206 | 0.0 | 3.2 | 0.46 | 0.66 | 0.66 | 95 | 1009.3 |
| 20260507181012 | 13 | 234 | 1.6 | 3.2 | 0.46 | 0.66 | 0.66 | 95 | 1009.0 |
| 20260507180011 | 13 | 306 | 1.6 | 11.3 | 0.46 | 0.66 | 0.66 | 94 | 1008.9 |
| 20260507175512 | 13 | 298 | 3.2 | 11.3 | 0.46 | 0.66 | 0.66 | 94 | 1008.7 |
| 20260507175012 | 13 | 346 | 8.0 | 11.3 | 0.46 | 0.66 | 0.66 | 93 | 1009.0 |
| 20260507174012 | 13 | 77 | 0.0 | 9.7 | 0.43 | 0.64 | 0.64 | 92 | 1008.7 |
| 20260507173511 | 13 | 329 | 6.4 | 14.5 | 0.46 | 0.64 | 0.64 | 92 | 1008.6 |
| 20260507173011 | 13 | 270 | 1.6 | 14.5 | 0.43 | 0.61 | 0.61 | 92 | 1008.4 |
| 20260507172518 | 13 | 350 | 4.8 | 14.5 | 0.23 | 0.38 | 0.38 | 92 | 1008.6 |
| 20260507172011 | 14 | 353 | 6.4 | 14.5 | 0.05 | 0.20 | 0.20 | 93 | 1008.3 |
| 20260507171542 | 14 | 207 | 4.8 | 12.9 | 0.05 | 0.20 | 0.20 | 93 | 1007.6 |
| 20260507171010 | 14 | 96 | 8.0 | 12.9 | 0.05 | 0.20 | 0.20 | 93 | 1007.5 |
| 20260507170513 | 14 | 101 | 6.4 | 11.3 | 0.05 | 0.20 | 0.20 | 93 | 1007.9 |
| 20260507170010 | 15 | 120 | 8.0 | 12.9 | 0.05 | 0.20 | 0.20 | 92 | 1007.5 |
| 20260507165513 | 15 | 155 | 6.4 | 12.9 | 0.05 | 0.20 | 0.20 | 92 | 1007.7 |
| 20260507164511 | 15 | 30 | 4.8 | 11.3 | 0.05 | 0.20 | 0.20 | 90 | 1007.5 |
| 20260507163012 | 15 | 337 | 8.0 | 12.9 | 0.03 | 0.18 | 0.18 | 86 | 1007.4 |
| 20260507162011 | 16 | 341 | 6.4 | 11.3 | 0.00 | 0.15 | 0.15 | 83 | 1007.2 |
| 20260507161512 | 17 | 358 | 8.0 | 11.3 | 0.00 | 0.15 | 0.15 | 80 | 1007.1 |
| 20260507161012 | 17 | 325 | 6.4 | 6.4 | 0.00 | 0.15 | 0.15 | 75 | 1006.9 |
| 20260507160511 | 18 | 317 | 4.8 | 6.4 | 0.00 | 0.15 | 0.15 | 74 | 1006.9 |
| 20260507160011 | 18 | 318 | 3.2 | 6.4 | 0.00 | 0.15 | 0.15 | 72 | 1006.9 |
| 20260507155009 | 18 | 348 | 1.6 | 6.4 | 0.00 | 0.15 | 0.15 | 69 | 1007.1 |
| 20260507154510 | 18 | 273 | 0.0 | 6.4 | 0.00 | 0.15 | 0.15 | 66 | 1006.7 |
| 20260507154010 | 19 | 260 | 0.0 | 3.2 | 0.00 | 0.15 | 0.15 | 64 | 1006.6 |
| 20260507153512 | 19 | 259 | 0.0 | 3.2 | 0.00 | 0.15 | 0.15 | 63 | 1006.5 |
| 20260507153009 | 19 | 263 | 0.0 | 6.4 | 0.00 | 0.15 | 0.15 | 63 | 1006.8 |
| 20260507152509 | 19 | 334 | 6.4 | 6.4 | 0.00 | 0.15 | 0.15 | 61 | 1007.1 |
| 20260507152009 | 19 | 296 | 4.8 | 4.8 | 0.00 | 0.15 | 0.15 | 62 | 1006.8 |
| 20260507151509 | 19 | 274 | 3.2 | 3.2 | 0.00 | 0.15 | 0.15 | 62 | 1006.9 |
| 20260507151010 | 19 | 337 | 1.6 | 6.4 | 0.00 | 0.15 | 0.15 | 61 | 1006.9 |
| 20260507150509 | 20 | 288 | 1.6 | 6.4 | 0.00 | 0.15 | 0.15 | 61 | 1006.8 |
| 20260507150009 | 20 | 315 | 3.2 | 12.9 | 0.00 | 0.15 | 0.15 | 61 | 1006.6 |
| 20260507145508 | 20 | 353 | 3.2 | 12.9 | 0.00 | 0.15 | 0.15 | 62 | 1006.4 |
| 20260507144510 | 20 | 265 | 3.2 | 11.3 | 0.00 | 0.15 | 0.15 | 61 | 1006.9 |
| 20260507144009 | 20 | 344 | 3.2 | 12.9 | 0.00 | 0.15 | 0.15 | 62 | 1006.8 |
| 20260507143509 | 20 | 267 | 6.4 | 12.9 | 0.00 | 0.15 | 0.15 | 62 | 1006.7 |
| 20260507143009 | 20 | 284 | 3.2 | 16.1 | 0.00 | 0.15 | 0.15 | 63 | 1006.5 |
| 20260507142510 | 20 | 252 | 9.7 | 14.5 | 0.00 | 0.15 | 0.15 | 58 | 1006.6 |
| 20260507142009 | 21 | 15 | 0.0 | 12.9 | 0.00 | 0.15 | 0.15 | 56 | 1006.6 |
| 20260507141509 | 21 | 260 | 9.7 | 14.5 | 0.00 | 0.15 | 0.15 | 58 | 1006.4 |
| 20260507141010 | 21 | 257 | 6.4 | 14.5 | 0.00 | 0.15 | 0.15 | 56 | 1006.6 |
| 20260507140509 | 21 | 283 | 1.6 | 12.9 | 0.00 | 0.15 | 0.15 | 57 | 1006.5 |
| 20260507140009 | 22 | 317 | 3.2 | 11.3 | 0.00 | 0.15 | 0.15 | 55 | 1006.4 |
| 20260507135009 | 21 | 244 | 3.2 | 12.9 | 0.00 | 0.15 | 0.15 | 55 | 1006.7 |
| 20260507134509 | 21 | 260 | 8.0 | 17.7 | 0.00 | 0.15 | 0.15 | 55 | 1006.9 |
| 20260507134010 | 21 | 246 | 4.8 | 17.7 | 0.00 | 0.15 | 0.15 | 55 | 1006.7 |
| 20260507133510 | 21 | 306 | 0.0 | 9.7 | 0.00 | 0.15 | 0.15 | 53 | 1006.8 |
| 20260507133009 | 21 | 239 | 0.0 | 11.3 | 0.00 | 0.15 | 0.15 | 54 | 1006.9 |
| 20260507132509 | 21 | 303 | 1.6 | 11.3 | 0.00 | 0.15 | 0.15 | 50 | 1007.2 |
| 20260507132009 | 21 | 255 | 1.6 | 12.9 | 0.00 | 0.15 | 0.15 | 50 | 1006.7 |
| 20260507131510 | 21 | 256 | 1.6 | 12.9 | 0.00 | 0.15 | 0.15 | 54 | 1006.9 |
| 20260507131009 | 21 | 309 | 9.7 | 12.9 | 0.00 | 0.15 | 0.15 | 55 | 1006.9 |
| 20260507130509 | 21 | 341 | 3.2 | 12.9 | 0.00 | 0.15 | 0.15 | 66 | 1007.1 |
| 20260507130009 | 20 | 315 | 6.4 | 12.9 | 0.00 | 0.15 | 0.15 | 64 | 1006.8 |
| 20260507125008 | 20 | 14 | 3.2 | 20.9 | 0.00 | 0.15 | 0.15 | 69 | 1007.2 |
| 20260507124510 | 20 | 258 | 3.2 | 9.7 | 0.00 | 0.15 | 0.15 | 65 | 1007.4 |
| 20260507124008 | 20 | 105 | 0.0 | 4.8 | 0.00 | 0.15 | 0.15 | 70 | 1006.8 |
| 20260507123510 | 20 | 311 | 3.2 | 4.8 | 0.00 | 0.15 | 0.15 | 69 | 1007.1 |
| 20260507123008 | 20 | 279 | 0.0 | 6.4 | 0.00 | 0.15 | 0.15 | 71 | 1007.1 |
| 20260507122511 | 20 | 279 | 1.6 | 6.4 | 0.00 | 0.15 | 0.15 | 69 | 1007.2 |
| 20260507122008 | 20 | 273 | 0.0 | 6.4 | 0.00 | 0.15 | 0.15 | 74 | 1007.2 |
| 20260507121511 | 19 | 169 | 4.8 | 6.4 | 0.00 | 0.15 | 0.15 | 73 | 1007.2 |
| 20260507121008 | 20 | 171 | 3.2 | 6.4 | 0.00 | 0.15 | 0.15 | 72 | 1006.9 |
| 20260507120510 | 19 | 198 | 1.6 | 6.4 | 0.00 | 0.15 | 0.15 | 73 | 1007.1 |
| 20260507120008 | 19 | 217 | 1.6 | 3.2 | 0.13 | 0.15 | 0.15 | 74 | 1007.2 |
| 20260507115008 | 20 | 221 | 1.6 | 3.2 | 0.15 | 0.15 | 0.15 | 72 | 1007.4 |
| 20260507114510 | 19 | 144 | 3.2 | 3.2 | 0.15 | 0.15 | 0.15 | 71 | 1007.3 |
| 20260507114008 | 18 | 228 | 0.0 | 3.2 | 0.15 | 0.15 | 0.15 | 72 | 1007.4 |
| 20260507113008 | 17 | 151 | 3.2 | 3.2 | 0.15 | 0.15 | 0.15 | 79 | 1007.2 |
| 20260507112510 | 17 | 241 | 0.0 | 3.2 | 0.15 | 0.15 | 0.15 | 88 | 1007.3 |
| 20260507112009 | 17 | 241 | 0.0 | 3.2 | 0.15 | 0.15 | 0.15 | 88 | 1007.5 |
| 20260507111510 | 17 | 242 | 0.0 | 3.2 | 0.15 | 0.15 | 0.15 | 88 | 1007.4 |
| 20260507110510 | 16 | 201 | 3.2 | 4.8 | 0.15 | 0.15 | 0.15 | 84 | 1007.4 |
| 20260507105511 | 18 | 279 | 1.6 | 4.8 | 0.00 | 0.00 | 0.00 | 70 | 1007.3 |
| 20260507105008 | 18 | 303 | 1.6 | 4.8 | 0.00 | 0.00 | 0.00 | 68 | 1006.9 |
| 20260507104511 | 18 | 275 | 3.2 | 6.4 | 0.00 | 0.00 | 0.00 | 69 | 1007.1 |
| 20260507103511 | 19 | 238 | 1.6 | 4.8 | 0.00 | 0.00 | 0.00 | 68 | 1006.9 |
| 20260507103009 | 19 | 271 | 1.6 | 9.7 | 0.00 | 0.00 | 0.00 | 68 | 1006.9 |
| 20260507102512 | 19 | 294 | 3.2 | 9.7 | 0.00 | 0.00 | 0.00 | 68 | 1007.1 |
| 20260507102010 | 19 | 259 | 3.2 | 4.8 | 0.00 | 0.00 | 0.00 | 68 | 1006.8 |
| 20260507101511 | 18 | 222 | 1.6 | 4.8 | 0.00 | 0.00 | 0.00 | 69 | 1006.9 |
| 20260507101010 | 19 | 237 | 0.0 | 4.8 | 0.00 | 0.00 | 0.00 | 69 | 1007.1 |
| 20260507100523 | 19 | 242 | 3.2 | 6.4 | 0.00 | 0.00 | 0.00 | 70 | 1007.2 |
| 20260507100010 | 18 | 266 | 1.6 | 9.7 | 0.00 | 0.00 | 0.00 | 71 | 1007.3 |
| 20260507095512 | 18 | 329 | 4.8 | 9.7 | 0.00 | 0.00 | 0.00 | 71 | 1006.9 |
| 20260507095010 | 18 | 276 | 1.6 | 6.4 | 0.00 | 0.00 | 0.00 | 72 | 1006.8 |
| 20260507094512 | 18 | 244 | 0.0 | 6.4 | 0.00 | 0.00 | 0.00 | 72 | 1006.8 |
| 20260507094009 | 18 | 300 | 4.8 | 4.8 | 0.00 | 0.00 | 0.00 | 72 | 1006.9 |
| 20260507093512 | 18 | 234 | 1.6 | 6.4 | 0.00 | 0.00 | 0.00 | 73 | 1007.2 |
| 20260507093010 | 18 | 279 | 0.0 | 6.4 | 0.00 | 0.00 | 0.00 | 73 | 1006.8 |
| 20260507092512 | 18 | 301 | 3.2 | 6.4 | 0.00 | 0.00 | 0.00 | 73 | 1006.8 |
| 20260507092010 | 18 | 305 | 3.2 | 6.4 | 0.00 | 0.00 | 0.00 | 73 | 1007.2 |
| 20260507091512 | 18 | 248 | 3.2 | 9.7 | 0.00 | 0.00 | 0.00 | 74 | 1006.7 |
| 20260507091010 | 18 | 341 | 3.2 | 9.7 | 0.00 | 0.00 | 0.00 | 74 | 1006.8 |
| 20260507090511 | 18 | 266 | 3.2 | 9.7 | 0.00 | 0.00 | 0.00 | 73 | 1006.7 |
| 20260507090008 | 18 | 24 | 3.2 | 9.7 | 0.00 | 0.00 | 0.00 | 72 | 1006.5 |
| 20260507085511 | 18 | 331 | 3.2 | 11.3 | 0.00 | 0.00 | 0.00 | 73 | 1006.6 |
| 20260507085008 | 17 | 325 | 1.6 | 11.3 | 0.00 | 0.00 | 0.00 | 75 | 1006.4 |
| 20260507083511 | 17 | 312 | 4.8 | 14.5 | 0.00 | 0.00 | 0.00 | 77 | 1006.5 |
| 20260507083008 | 17 | 269 | 3.2 | 14.5 | 0.00 | 0.00 | 0.00 | 78 | 1006.6 |
| 20260507082511 | 17 | 299 | 6.4 | 11.3 | 0.00 | 0.00 | 0.00 | 78 | 1006.3 |
| 20260507082008 | 16 | 301 | 6.4 | 14.5 | 0.00 | 0.00 | 0.00 | 78 | 1006.5 |
| 20260507081510 | 16 | 335 | 4.8 | 14.5 | 0.00 | 0.00 | 0.00 | 80 | 1006.5 |
| 20260507081008 | 16 | 342 | 8.0 | 12.9 | 0.00 | 0.00 | 0.00 | 79 | 1006.3 |
| 20260507080511 | 16 | 307 | 3.2 | 16.1 | 0.00 | 0.00 | 0.00 | 79 | 1006.3 |
| 20260507080007 | 16 | 267 | 1.6 | 16.1 | 0.00 | 0.00 | 0.00 | 80 | 1006.4 |
| 20260507075510 | 16 | 260 | 3.2 | 17.7 | 0.00 | 0.00 | 0.00 | 80 | 1006.3 |
| 20260507074957 | 16 | 332 | 4.8 | 17.7 | 0.00 | 0.00 | 0.00 | 80 | 1006.3 |
| 20260507074456 | 16 | 268 | 4.8 | 20.9 | 0.00 | 0.00 | 0.00 | 79 | 1005.9 |
| 20260507073957 | 16 | 354 | 6.4 | 20.9 | 0.00 | 0.00 | 0.00 | 80 | 1005.9 |
| 20260507073456 | 16 | 18 | 3.2 | 14.5 | 0.00 | 0.00 | 0.00 | 80 | 1006.1 |
| 20260507072457 | 17 | 258 | 11.3 | 14.5 | 0.00 | 0.00 | 0.00 | 79 | 1005.8 |
| 20260507071957 | 16 | 259 | 3.2 | 14.5 | 0.00 | 0.00 | 0.00 | 80 | 1005.7 |
| 20260507071455 | 16 | 351 | 4.8 | 14.5 | 0.00 | 0.00 | 0.00 | 79 | 1005.6 |
| 20260507070957 | 16 | 268 | 6.4 | 14.5 | 0.00 | 0.00 | 0.00 | 79 | 1005.7 |
| 20260507070457 | 16 | 265 | 3.2 | 14.5 | 0.00 | 0.00 | 0.00 | 80 | 1005.5 |
| 20260507065957 | 16 | 228 | 8.0 | 14.5 | 0.00 | 0.00 | 0.00 | 80 | 1005.6 |
| 20260507065455 | 16 | 287 | 8.0 | 16.1 | 0.00 | 0.00 | 0.00 | 81 | 1005.5 |